Change the Weather History Date:

Monday, January 6, 2014

  Actual Average Record
Temperature  
Mean Temperature 76 °F -  
Max Temperature 87 °F 88 °F 98 °F (2009)
Min Temperature 66 °F 69 °F 66 °F (2001)
Cooling Degree Days 12    
Growing Degree Days 26 (Base 50)    
Moisture  
Dew Point 61 °F    
Average Humidity 64    
Maximum Humidity 100    
Minimum Humidity 29    
Precipitation  
Precipitation 0.00 in - - ()
Sea Level Pressure  
Sea Level Pressure 29.78 in    
Wind  
Wind Speed 4 mph ()    
Max Wind Speed 16 mph    
Max Gust Speed -    
Visibility 6.2 miles    
Events      
Averages and records for this station are not official NWS values.
T = Trace of Precipitation, MM = Missing Value Source: Averaged Metar Reports

Daily Weather History Graph

Daily Weather History Graph

Search for Another Location

Airport or City:

Trip Planner

Search our weather history database for the weather conditions in past years. The results will help you decide how hot, cold, wet, or windy it might be!

Date:

Astronomy

Jan. 06, 2014 Rise Set
Actual Time 5:53 AM CAT 7:10 PM CAT
Civil Twilight 5:29 AM CAT 7:35 PM CAT
Nautical Twilight 5:00 AM CAT 8:03 PM CAT
Astronomical Twilight 4:30 AM CAT 8:33 PM CAT
Moon 10:56 AM CAT (1/6) 11:14 PM CAT (1/6)
Length of Visible Light 14h 05m
Length of Day
13h 17m
Waxing Crescent, 31% of the Moon is Illuminated
Jan 6
Waxing Crescent
Jan 8
First Quarter
Jan 16
Full
Jan 24
Last Quarter
Jan 30
New

Hourly Weather History & Observations

Time (CAT) Temp. Heat Index Dew Point Humidity Pressure Visibility Wind Dir Wind Speed Gust Speed Precip Events Conditions
12:00 AM 68.0 °F - 68.0 °F 100% 29.74 in 6.2 mi Variable 2.3 mph - N/A   Partly Cloudy
2:00 AM 68.0 °F - 66.2 °F 94% 29.77 in 6.2 mi West 16.1 mph - N/A   Partly Cloudy
4:00 AM 68.0 °F - 62.6 °F 83% 29.74 in 6.2 mi WNW 5.8 mph - N/A   Scattered Clouds
5:00 AM 66.2 °F - 62.6 °F 88% 29.74 in 6.2 mi NNW 4.6 mph - N/A   Partly Cloudy
6:00 AM 66.2 °F - 62.6 °F 88% 29.80 in 6.2 mi Variable 2.3 mph - N/A   Scattered Clouds
7:00 AM 66.2 °F - 64.4 °F 94% 29.83 in 6.2 mi Variable 1.2 mph - N/A   Mostly Cloudy
8:00 AM 71.6 °F - 64.4 °F 78% 29.83 in - Variable 2.3 mph - N/A   Clear
9:00 AM 77.0 °F - 62.6 °F 61% 29.83 in - SSW 3.5 mph - N/A   Clear
10:00 AM 77.0 °F - 64.4 °F 65% 29.83 in - Variable 2.3 mph - N/A   Clear
11:00 AM 80.6 °F 82.3 °F 64.4 °F 58% 29.83 in - Variable 1.2 mph - N/A   Clear
1:00 PM 84.2 °F 85.6 °F 64.4 °F 51% 29.80 in 6.2 mi West 3.5 mph - N/A   Partly Cloudy
2:00 PM 87.8 °F - 51.8 °F 29% 29.77 in 6.2 mi WSW 5.8 mph - N/A   Partly Cloudy
3:00 PM 87.8 °F 85.7 °F 53.6 °F 31% 29.74 in 6.2 mi WSW 6.9 mph - N/A   Partly Cloudy
4:00 PM 87.8 °F 86.5 °F 57.2 °F 35% 29.74 in 6.2 mi NW 5.8 mph - N/A   Scattered Clouds
5:00 PM 87.8 °F 85.7 °F 53.6 °F 31% 29.74 in 6.2 mi NW 5.8 mph - N/A   Scattered Clouds
6:00 PM 87.8 °F 87.1 °F 59.0 °F 38% 29.71 in 6.2 mi WNW 5.8 mph - N/A   Scattered Clouds
7:00 PM 84.2 °F 83.0 °F 55.4 °F 37% 29.74 in 6.2 mi WNW 4.6 mph - N/A   Partly Cloudy
8:00 PM 80.6 °F 81.1 °F 59.0 °F 48% 29.74 in 6.2 mi Variable 2.3 mph - N/A   Partly Cloudy
9:00 PM 73.4 °F - 62.6 °F 69% 29.77 in 6.2 mi Variable 1.2 mph - N/A   Partly Cloudy
10:00 PM 73.4 °F - 60.8 °F 65% 29.80 in - Variable 1.2 mph - N/A   Clear
11:00 PM 71 °F - 63 °F 70%  in 6 mi Calm Calm - -   Partly Cloudy
11:00 PM 71.6 °F - 69.8 °F 94% 29.86 in - Calm Calm - N/A   Clear